Location: Constantia
(34.0183°S, 18.4411°E)
Time: 16:57:32
(UTC+00:00)

Meteor 1-27 - Pass Details

Date: 17 February 2020
Orbit: 839 x 891 km, 81.3° (Epoch: 07 April)

Event Time Altitude Azimuth Distance (km) Brightness Sun altitude
Rises 03:20:55 0° 195° (SSW) 3,506 7.5 -12.8°
Reaches altitude 10° 03:23:26 10° 199° (SSW) 2,553 6.8 -12.4°
Maximum altitude 03:29:03 52° 273° (W) 1,073 4.4 -11.3°
Drops below altitude 10° 03:34:31 10° 348° (NNW) 2,487 6.3 -10.3°
Sets 03:36:58 0° 353° (N) 3,408 7.1 -9.8°
